Dewpoint
33 31 30 31 33 33 33 32 31 32 33 31 30 30 30 30 27 25 24 24 25 27 26 31 49 50 53 60 63 65 65 65 66 66 65 65 65 66 66 66 66 67 66 67
31 30 31 31 32 32 32 32 32 33 32 31 30 29 30 29 28 27 26 27 28 27 27 27 28 33 47 56 62 63 65 66 66 66 66 65 65 65 66 66 66 67 66 67
32 30 30 29 29 29 29 29 29 29 30 30 28 27 27 28 29 28 28 28 27 27 26 27 29 37 48 55 60 62 65 66 66 66 66 64 63 63 63 64 65 66 66 66
31 31 29 29 29 30 27 28 29 30 28 26 28 23 25 26 26 26 27 28 30 31 28 27 28 38 53 57 60 62 64 65 66 66 65 64 63 62 63 63 64 64 65 65
27 28 28 29 29 28 26 28 30 29 27 26 26 22 21 25 25 26 27 31 32 29 26 27 29 33 48 56 60 61 64 65 65 65 64 64 63 62 62 63 63 63 64 65
27 29 28 28 29 28 29 30 29 29 27 24 25 22 24 25 25 27 28 31 33 32 35 40 45 49 48 57 61 63 64 65 64 64 64 63 63 62 61 61 62 62 63 64
26 26 28 28 26 25 28 28 25 20 23 19 26 24 24 27 27 29 29 32 36 39 42 43 50 54 55 58 61 63 64 64 64 64 64 63 63 63 62 61 62 62 62 63
19 13 22 24 24 20 27 27 25 14 20 22 27 22 22 28 30 31 32 34 35 36 39 42 45 50 55 58 60 62 63 62 63 64 64 63 63 63 63 62 62 62 62 63
19 19 26 23 23 23 25 27 29 25 28 25 23 25 26 27 28 31 30 31 33 35 36 39 43 47 50 54 58 60 62 62 63 63 63 63 64 63 63 63 62 63 63 63
25 22 26 26 25 26 25 30 27 28 23 22 25 25 21 24 25 26 26 30 32 33 35 36 38 43 48 54 56 58 59 60 62 63 64 64 64 64 64 64 63 63 63 63
28 25 22 26 24 23 26 26 26 27 27 22 20 22 27 26 26 26 27 30 33 34 35 35 35 39 44 48 55 57 58 58 59 62 63 64 64 64 64 64 64 63 63 61
28 26 21 21 26 27 26 25 25 22 22 25 23 20 26 28 28 30 31 33 35 34 35 36 36 36 41 46 49 54 57 57 57 59 62 63 63 63 63 63 63 62 61 60
30 27 25 24 25 26 25 25 26 27 26 22 20 22 30 30 28 28 28 29 32 33 33 34 36 37 38 43 49 52 54 55 57 57 58 60 61 61 62 62 62 60 59 58
31 29 24 18 20 22 22 23 25 25 22 23 24 23 26 24 22 24 24 29 31 33 34 34 36 37 40 42 48 51 53 55 56 58 58 57 58 59 59 60 60 59 58 56
30 25 28 26 25 24 22 20 21 21 21 18 20 20 21 22 23 24 27 29 31 34 35 35 36 38 39 41 44 49 52 53 56 58 59 58 59 59 60 60 59 58 57 55
34 27 29 27 28 26 24 26 24 24 24 23 23 23 25 25 25 27 32 36 37 37 38 39 39 38 38 39 40 42 46 49 55 58 58 59 59 60 60 59 57 56 54 53
32 29 28 25 29 27 25 27 27 27 27 25 23 24 25 30 33 35 39 40 41 40 40 42 43 43 42 43 43 42 43 46 53 57 58 59 59 59 59 56 54 53 52 50
32 31 29 25 27 23 26 28 25 24 24 26 25 30 33 34 35 39 40 40 38 35 36 36 39 41 43 43 44 44 46 47 49 52 56 57 57 57 56 54 53 51 49 47
34 33 29 26 25 26 27 29 27 26 25 32 32 34 38 40 40 39 40 40 38 37 37 36 37 40 42 42 42 42 42 45 45 46 48 51 53 53 52 52 51 49 46 45
34 33 29 32 26 21 24 27 30 30 23 36 37 39 39 38 36 38 40 41 40 40 40 38 38 40 40 41 41 39 40 40 40 44 46 47 49 50 49 48 47 45 45 43
32 32 25 28 25 26 32 32 33 23 22 41 41 40 39 38 38 39 42 42 43 43 43 43 38 38 39 41 42 40 40 39 41 44 44 44 45 46 46 44 43 42 42 43
29 29 29 29 26 23 32 32 27 31 43 41 41 40 38 39 40 41 42 42 42 43 44 45 45 41 39 40 40 39 38 40 40 41 41 41 41 42 42 42 42 43 43 42
27 28 28 29 28 36 43 40 41 42 41 41 40 39 40 41 41 42 43 42 43 44 44 44 45 44 40 40 39 38 38 40 40 40 39 40 40 40 41 41 41 41 40 39
32 34 30 30 35 42 39 40 40 40 40 41 43 42 41 42 42 43 43 42 42 43 42 43 42 41 41 42 40 40 41 41 41 39 39 39 39 39 40 40 40 39 39 38
35 37 34 35 41 40 40 40 41 41 42 41 41 41 41 42 41 41 41 41 42 39 39 40 40 39 40 38 37 37 38 40 40 39 39 39 38 38 38 37 37 38 38 39
36 36 34 33 38 38 40 41 37 36 35 38 41 40 42 44 42 42 42 41 35 36 37 37 37 36 35 36 36 36 36 37 39 39 39 39 39 38 38 37 36 38 38 39
Wind_Speed
4 9 19 18 14 14 16 15 18 23 20 9 17 19 21 25 15 14 17 18 19 20 23 27 29 27 27 28 27 29 28 28 25 24 25 24 29 22 20 19 18 19 18 18
5 20 23 10 9 12 13 18 25 19 13 6 17 23 22 17 12 10 14 18 20 20 25 21 24 27 31 34 35 31 32 29 30 27 25 17 19 16 15 14 15 19 20 20
20 12 3 6 12 11 14 13 17 20 8 4 8 12 7 11 12 15 17 19 19 25 28 25 15 24 27 32 34 35 35 34 31 27 18 6 8 5 12 17 20 21 20 21
14 17 23 21 18 12 21 11 18 15 9 8 4 12 9 11 15 12 15 16 19 22 22 23 14 19 27 32 29 29 29 27 25 24 21 25 24 21 22 20 15 15 18 20
15 9 8 12 11 12 13 14 14 6 4 7 2 5 5 8 11 18 19 21 22 18 14 15 14 20 23 17 21 19 18 17 18 20 20 20 19 15 8 14 17 19 15 18
21 5 6 7 3 4 15 3 3 4 0 8 6 6 7 3 6 17 18 18 15 11 3 3 6 9 10 9 13 15 17 15 16 18 19 23 23 18 16 15 18 17 16 14
26 30 14 9 18 22 8 3 3 3 5 11 7 4 13 9 8 9 20 14 10 11 8 8 11 11 12 15 18 20 22 23 24 26 25 24 22 18 20 19 19 16 16 18
18 17 23 19 31 13 12 18 10 9 7 6 3 8 6 5 4 7 6 6 5 6 7 4 3 8 12 16 20 20 21 20 19 20 21 21 21 20 20 20 18 18 18 19
14 13 6 10 18 26 11 11 20 4 3 3 6 7 13 6 6 6 7 8 10 7 6 8 7 10 13 16 20 24 23 21 22 24 21 21 20 22 22 19 17 19 19 18
8 7 8 4 10 20 20 14 6 4 8 10 7 8 13 5 9 12 11 10 9 8 11 12 14 16 15 19 18 18 20 24 24 23 23 22 23 24 23 18 21 21 21 19
9 6 4 1 10 18 10 12 5 8 9 11 7 8 12 20 16 13 16 17 11 12 13 13 17 21 24 19 18 24 24 25 25 23 23 22 23 22 20 21 21 21 18 16
19 6 14 20 6 1 10 17 16 16 10 6 6 16 7 11 10 12 19 17 19 19 18 18 22 22 22 26 24 24 25 26 27 26 22 24 19 19 20 21 20 17 18 15
18 13 5 6 7 3 10 14 15 4 3 16 18 10 4 3 7 15 19 23 22 24 25 25 22 22 23 25 26 26 25 27 25 21 23 21 23 21 22 21 19 19 18 18
27 10 16 23 8 9 10 11 14 16 15 14 15 16 7 8 14 19 27 23 24 25 25 27 25 25 23 24 23 21 21 22 21 18 20 22 22 22 22 20 18 18 19 19
19 15 16 17 13 7 6 10 15 15 10 14 14 22 11 14 20 22 18 20 22 24 23 24 25 25 24 21 23 24 26 25 18 19 20 24 21 19 19 19 18 18 19 19
10 10 12 15 13 12 12 17 16 9 10 16 14 26 18 18 13 15 15 14 17 18 20 21 22 23 22 21 21 21 24 29 20 20 24 21 18 19 21 21 20 19 19 20
17 18 11 15 9 5 14 21 19 15 11 17 23 25 7 9 9 9 6 10 13 15 16 17 18 18 17 18 17 18 19 17 19 22 23 21 21 21 21 17 17 21 22 20
7 9 4 12 7 15 10 9 10 9 11 16 15 14 11 13 10 9 8 7 9 12 16 18 19 17 17 17 21 17 17 11 8 10 9 7 8 11 9 12 16 15 16 22
5 7 5 9 14 11 10 4 8 6 12 10 12 14 7 7 2 6 12 11 9 9 11 13 15 15 17 21 17 19 21 19 17 16 14 12 8 11 12 16 16 13 15 16
11 6 6 4 6 24 4 10 9 4 32 12 11 5 1 5 4 4 7 8 8 9 12 16 17 16 20 20 19 21 19 19 20 18 13 6 3 7 9 8 7 5 9 13
9 7 24 13 14 11 5 16 10 13 24 12 9 7 5 2 2 3 8 11 10 11 14 17 16 14 14 15 16 16 14 15 15 14 11 8 4 2 6 8 9 11 9 9
20 17 13 8 11 27 11 7 17 9 6 12 9 5 3 1 6 7 10 11 14 17 16 12 13 13 14 13 11 10 11 10 9 9 10 10 10 7 4 10 12 15 19 18
25 17 16 15 12 6 2 4 9 6 11 5 7 4 2 4 4 11 10 12 11 13 14 13 11 12 12 11 10 11 13 10 9 7 7 7 5 4 1 5 8 11 13 16
5 5 10 5 5 10 16 13 14 12 9 4 2 5 5 8 5 7 14 9 11 11 13 12 15 19 21 20 16 15 17 16 13 8 5 4 4 6 7 8 10 14 15 14
6 9 11 4 9 16 13 12 9 6 3 4 6 7 9 5 7 7 15 12 11 11 13 13 13 12 13 14 16 18 18 14 13 10 9 11 13 13 15 17 15 13 10 10
8 10 19 20 10 5 6 11 6 0 4 9 14 11 16 14 14 11 10 5 6 9 11 13 15 14 15 16 18 20 21 19 16 14 12 10 9 11 12 15 13 14 12 8
Wind_Direction
203 215 235 239 221 245 281 286 281 276 275 280 288 292 293 300 304 290 269 263 268 262 251 227 219 213 207 202 197 200 197 198 188 195 200 206 213 213 213 211 205 203 208 208
211 235 242 249 230 242 255 273 282 282 267 233 293 298 285 273 268 270 266 267 272 278 274 253 213 207 201 199 198 198 201 194 195 198 203 210 209 217 218 215 212 207 206 209
220 218 146 223 268 261 258 254 278 285 314 269 327 308 306 282 269 277 276 270 270 259 264 262 207 204 199 198 198 200 199 197 196 197 192 171 167 168 197 206 211 213 211 215
244 251 248 255 251 249 266 243 258 270 321 312 52 288 285 310 315 316 314 304 291 288 267 255 229 195 194 201 199 203 199 195 193 185 189 198 204 208 221 223 221 212 209 216
229 214 210 235 237 201 249 235 232 244 259 316 168 254 270 325 354 347 327 325 321 322 286 257 230 213 205 194 193 196 190 182 182 184 191 196 206 214 210 208 218 221 213 215
237 226 202 219 267 278 291 219 60 54 174 280 205 206 281 33 330 324 318 319 318 320 346 87 128 158 186 161 163 159 159 169 172 181 191 199 210 213 212 212 216 220 225 224
246 246 243 254 278 283 232 214 267 283 199 227 180 214 255 258 318 315 316 314 343 350 2 118 123 126 150 166 169 172 179 192 190 195 201 206 214 211 217 219 217 213 220 224
213 261 217 212 215 209 206 200 192 229 211 222 214 230 246 188 315 356 338 284 273 314 336 337 158 155 154 168 181 185 193 201 196 199 206 209 210 214 220 221 217 218 223 227
198 247 235 191 206 189 201 198 212 211 130 282 240 265 300 270 260 357 3 345 296 275 278 275 256 228 196 190 191 195 198 203 198 204 207 210 214 216 221 222 215 224 226 228
205 244 227 219 176 200 208 164 169 189 222 239 243 236 227 263 267 314 311 311 301 287 268 268 261 256 233 220 210 202 199 203 205 205 205 209 215 218 223 219 220 221 226 223
173 197 219 134 196 191 176 195 193 181 178 217 221 234 225 243 262 283 288 298 264 284 284 268 255 249 246 241 216 213 210 212 216 210 209 211 215 214 214 218 222 223 224 218
205 206 239 237 228 16 229 211 188 209 209 214 220 241 227 227 263 300 301 301 301 306 300 297 289 287 268 244 238 222 214 212 219 214 208 212 212 211 212 218 220 212 218 208
166 211 212 289 272 180 224 218 213 149 122 230 245 261 314 247 311 311 307 308 315 316 312 307 300 287 275 261 244 232 230 224 221 209 207 208 211 209 217 225 222 213 210 210
167 168 192 213 216 185 201 200 199 202 228 238 239 269 221 286 291 294 292 302 305 304 298 295 291 285 269 255 244 249 248 242 240 224 215 215 217 216 219 223 215 209 201 199
182 208 204 221 222 211 216 223 180 196 202 235 248 250 235 261 283 284 293 301 302 301 303 296 292 286 281 267 249 242 244 250 242 232 222 224 222 217 220 222 217 209 201 200
199 228 192 222 215 197 219 237 226 215 236 256 260 272 262 265 279 293 295 316 311 306 312 322 319 304 292 282 262 250 248 246 235 228 228 224 216 216 219 220 214 207 202 194
187 197 186 232 183 158 248 233 193 207 195 223 247 256 234 272 283 291 340 332 336 339 336 349 344 343 343 340 333 308 287 268 231 228 232 222 216 217 219 214 206 209 202 184
164 157 158 216 151 230 250 217 219 213 190 211 253 272 287 289 265 84 37 13 7 2 355 357 352 5 18 17 21 21 27 5 297 278 282 279 263 252 240 219 220 209 193 190
151 125 165 200 210 272 247 182 161 184 263 233 245 275 323 346 114 65 31 21 6 359 355 348 347 350 6 19 23 34 24 20 21 5 349 324 275 250 241 234 223 204 187 186
172 154 185 157 220 241 79 212 211 128 266 177 199 189 301 19 275 277 2 354 1 6 10 8 11 13 18 10 15 19 15 9 360 350 344 348 283 242 242 241 220 205 190 179
177 185 215 208 239 268 199 133 126 232 270 159 147 134 95 126 194 268 321 317 315 331 347 355 4 13 3 356 2 6 2 357 339 334 336 335 328 250 204 186 171 159 155 140
183 182 202 196 240 260 187 157 224 231 115 133 131 132 120 348 315 313 325 324 330 333 340 348 342 345 341 348 359 353 346 331 332 339 334 332 328 306 220 193 171 156 152 146
217 201 195 193 226 183 60 108 73 96 131 117 121 83 357 293 313 314 302 311 314 315 318 335 339 340 335 328 330 322 317 310 310 325 344 344 351 359 51 151 140 130 137 138
230 162 215 179 181 133 112 92 84 79 86 77 39 311 291 292 320 329 286 300 311 323 328 334 342 344 336 343 8 5 355 348 337 331 8 38 62 71 71 98 120 129 127 130
188 152 186 199 110 112 93 102 99 69 355 305 280 260 265 250 272 220 270 300 321 341 347 352 2 359 16 30 25 15 7 8 10 11 27 49 56 59 70 63 57 64 52 81
187 179 195 223 132 102 133 146 131 82 287 280 264 259 250 232 245 253 281 337 10 16 20 34 41 41 33 34 34 28 26 28 34 30 19 28 53 63 53 44 29 31 33 22